Home   Weather   Dundee   Past weeks

Flag for United Kingdom Past Weather in Dundee, Scotland, United Kingdom — Yesterday and Last 2 Weeks

Now
46 °F

Passing clouds.


Feels Like: 41 °F
Forecast: N/A
Wind: 10 mph from West

Location: Dundee / Riverside

Current Time: Dec 8, 2016 at 4:32:14 pm

Latest Report: Dec 8, 2016 at 3:50 pm


Visibility: N/A

Pressure: 30.04 "Hg

Humidity: 93%

Dew Point: 45 °F

Location of DundeeLocation

Past Weather in Dundee — Graph

°F

Dundee Temperature Yesterday

Maximum temperature yesterday: 57 °F (at 7:50 pm)
Minimum temperature yesterday: 48 °F (at 6:20 am)
Average temperature yesterday: 51 °F

High & Low Weather Summary for the Past Weeks

 TemperatureHumidityPressure
High57 °F (Dec 7, 7:50 pm)100% (Nov 24, 8:20 am)30.54 "Hg (Nov 24, 8:20 am)
Low25 °F (Nov 24, 8:20 am)62% (Dec 4, 2:20 pm)29.80 "Hg (Dec 7, 12:50 pm)
Average40 °F89%30.28 "Hg
* Reported Nov 23 3:20 pm — Dec 8 3:20 pm, Dundee, Weather by CustomWeather, © 2016

Note: Actual official high and low records may vary slightly from our data, if they occured in-between our weather recording intervals... More about our weather records

Advertising

Dundee Weather History for the Previous 24 Hours

Scroll right to see more
 ConditionsComfort  
Time TempWeatherWind HumidityBarometerVisibility
3:20 pm
Thu, Dec 8
50 °FPassing clouds.12 mph88%30.04 "HgN/A
2:50 pm50 °FPassing clouds.12 mph88%30.04 "HgN/A
2:20 pm50 °FPassing clouds.12 mph88%30.04 "HgN/A
1:50 pm50 °FPassing clouds.9 mph88%30.01 "HgN/A
1:20 pm50 °FPassing clouds.9 mph94%30.04 "HgN/A
12:50 pm48 °FPassing clouds.9 mph94%30.04 "HgN/A
12:20 pm46 °FPassing clouds.8 mph100%30.04 "HgN/A
11:50 am45 °FPassing clouds.7 mph93%30.01 "HgN/A
11:20 am46 °FPassing clouds.9 mph93%30.01 "HgN/A
10:50 am46 °FPassing clouds.7 mph100%30.01 "HgN/A
10:20 am48 °FPassing clouds.8 mph94%30.01 "HgN/A
9:50 am48 °FScattered clouds.7 mph94%30.01 "HgN/A
9:20 am48 °FScattered clouds.3 mph94%30.01 "HgN/A
8:50 am46 °FScattered clouds.2 mph93%30.01 "HgN/A
8:20 am46 °FPassing clouds.5 mph93%30.01 "HgN/A
7:50 am50 °FPassing clouds.9 mph88%30.01 "HgN/A
7:20 am48 °FPassing clouds.8 mph94%29.98 "HgN/A
6:50 am50 °FPassing clouds.15 mph88%29.95 "HgN/A
6:20 am50 °FPassing clouds.25 mph88%29.92 "HgN/A
8:20 pm
Wed, Dec 7
55 °FPartly cloudy.15 mph94%29.86 "HgN/A
7:50 pm57 °FPartly cloudy.16 mph88%29.83 "HgN/A
7:20 pm52 °FPassing clouds.14 mph94%29.83 "HgN/A
6:50 pm52 °FPassing clouds.16 mph94%29.83 "HgN/A
6:20 pm54 °FPassing clouds.16 mph88%29.80 "HgN/A
5:50 pm50 °FPassing clouds.13 mph94%29.80 "HgN/A
5:20 pm52 °FPassing clouds.14 mph94%29.80 "HgN/A
4:50 pm50 °FPassing clouds.16 mph94%29.80 "HgN/A
4:20 pm52 °FPassing clouds.18 mph94%29.80 "HgN/A
Weather by CustomWeather, © 2016

See weather overviewHow to use our weather pages